Theta_e
287 286 284 284 284 285 285 287 288 289 289 289 289 288 287 287 286 286 287 288 288 288 289 289 288 288 289 291 292 292 292 292 292 292 293 293 293 293 294 294 294 293 292 292 294 295 296 296 296 295 296 297
288 287 285 284 284 283 284 285 286 287 287 287 286 286 285 285 284 285 287 287 287 288 288 288 287 287 288 290 291 291 291 291 290 291 292 292 292 292 291 290 290 288 286 288 290 293 294 294 294 294 295 296
288 287 285 285 285 284 284 283 284 284 284 285 285 285 285 284 284 285 286 286 287 287 287 287 286 286 287 288 289 290 289 289 288 289 290 290 290 290 288 286 285 284 284 285 287 290 292 292 292 292 294 295
288 287 286 286 285 285 284 284 284 283 284 285 285 285 285 284 284 285 286 286 286 286 286 285 285 285 286 287 288 288 288 288 287 287 288 288 288 288 286 283 282 282 283 284 284 287 289 290 290 291 292 293
288 287 287 287 286 286 285 285 285 284 285 285 285 285 285 284 284 285 285 285 285 285 285 284 285 285 285 285 287 287 286 286 286 286 287 286 286 286 283 282 282 282 282 283 283 285 286 288 289 290 291 292
288 288 287 287 286 286 286 285 285 285 285 285 285 285 284 284 284 284 285 285 285 285 284 284 285 285 284 285 286 286 285 285 285 285 285 285 285 285 283 282 283 282 282 282 282 283 285 286 288 289 290 290
288 288 288 287 286 286 286 286 286 286 285 285 285 285 284 284 284 284 284 284 284 284 284 285 285 285 284 285 285 285 285 284 285 285 285 285 284 284 284 284 283 283 283 282 282 282 283 284 286 287 288 289
289 288 287 287 286 286 286 286 286 286 285 285 284 284 284 284 284 284 284 284 284 284 284 285 285 285 285 285 285 285 284 285 285 284 284 284 284 284 284 284 283 283 283 283 282 281 282 283 284 285 287 287
289 288 287 287 286 286 286 286 286 286 285 285 284 284 284 283 284 284 284 284 284 284 284 284 285 285 285 285 285 284 284 285 284 284 284 284 284 284 284 283 283 283 283 283 282 281 281 282 282 283 284 286
289 288 287 287 286 286 286 285 285 285 285 284 284 283 283 283 283 283 283 283 284 284 284 284 285 285 285 284 284 284 284 284 284 284 284 284 284 283 283 283 283 283 283 283 282 281 281 281 281 282 283 284
288 288 287 287 286 286 286 285 285 285 285 284 283 283 283 283 283 283 283 283 283 283 283 284 284 285 284 284 284 284 284 284 284 284 284 283 283 283 283 283 283 283 283 283 282 282 281 281 281 281 281 282
288 288 287 287 286 286 285 285 285 285 284 284 283 283 283 283 283 282 282 282 283 283 283 283 284 284 284 284 284 284 283 283 283 283 283 283 283 283 283 283 283 282 283 282 282 282 282 281 281 281 281 281
288 288 287 287 286 286 285 285 285 285 284 283 283 283 282 282 282 282 282 282 282 283 282 283 283 283 284 284 284 283 283 283 283 283 283 283 283 283 283 283 282 282 282 282 282 282 282 281 281 281 281 281
288 288 287 287 286 286 285 285 285 284 283 283 283 283 282 282 282 281 281 281 282 282 282 282 282 283 283 283 283 283 283 282 282 282 282 282 282 282 282 282 282 282 282 282 282 282 282 282 281 281 281 280
288 288 287 287 286 286 285 285 284 284 283 283 283 282 282 281 281 281 281 281 281 282 282 282 282 282 282 283 282 282 282 282 282 282 282 282 282 282 282 282 282 282 282 282 282 282 282 282 281 281 281 280
288 288 287 287 286 286 285 284 284 283 283 283 282 282 281 281 281 281 281 280 281 281 281 281 281 282 282 282 282 282 282 281 281 281 281 281 281 282 282 282 282 282 282 282 282 282 282 282 281 281 280 280
288 288 287 287 286 286 285 284 284 283 283 283 282 282 281 281 280 280 280 280 280 280 281 281 281 281 281 281 281 281 281 281 281 281 281 281 281 281 282 282 282 282 282 282 282 282 281 281 281 281 280 280
288 288 287 287 286 285 285 284 284 283 283 282 282 281 281 280 280 280 280 280 279 280 280 280 280 281 281 281 281 281 280 280 280 280 281 281 281 281 281 281 282 282 282 282 282 281 281 281 281 281 280 280
288 288 287 287 286 285 285 284 284 283 283 282 282 281 281 280 280 280 280 279 279 279 280 280 280 280 280 280 280 280 280 280 280 280 280 280 280 281 281 281 281 281 281 281 281 281 281 281 280 280 280 280
288 288 287 286 286 285 285 284 283 283 282 282 281 281 280 280 280 279 279 279 279 279 280 280 280 280 280 280 280 280 279 279 279 280 280 280 280 280 280 280 281 281 281 281 281 281 281 280 280 280 280 280
288 288 287 286 285 285 284 284 283 283 282 282 281 281 280 280 279 279 279 278 279 279 279 279 279 279 279 279 279 279 279 279 279 279 279 279 279 280 280 280 280 280 280 281 281 281 280 280 280 280 280 280
288 287 287 286 285 284 284 283 283 282 282 281 281 280 280 280 279 279 278 278 279 279 278 278 278 278 278 278 278 278 278 278 278 278 279 279 279 279 279 279 279 280 280 280 280 280 280 280 280 281 281 281
288 287 286 286 285 284 283 283 282 282 282 281 281 280 280 279 279 279 278 278 278 278 278 278 278 278 278 278 278 278 278 278 278 278 278 278 279 279 279 279 279 279 279 280 280 280 280 280 281 281 281 281
288 287 286 286 285 284 283 283 282 282 282 281 281 280 280 279 279 278 278 278 278 278 278 278 278 278 278 277 278 278 278 278 278 278 278 278 278 278 278 278 279 279 279 280 280 280 280 281 281 281 281 281
288 287 286 286 285 284 284 283 283 282 282 281 280 280 280 279 279 278 278 278 278 278 277 277 277 277 277 277 277 277 277 277 277 278 278 278 278 278 278 278 279 279 279 280 280 280 281 281 282 282 282 282
288 287 287 286 286 285 285 284 283 283 282 281 280 280 280 279 278 278 278 278 278 278 277 277 277 277 277 277 277 277 277 277 277 277 277 277 277 277 278 278 279 279 279 279 280 280 280 281 283 283 283 283
288 287 287 286 286 286 285 285 284 283 282 281 280 280 279 279 278 278 278 278 278 277 277 277 277 277 277 277 277 277 277 277 277 277 277 277 277 277 278 278 279 279 279 279 279 279 280 281 282 283 284 283
288 287 287 286 286 285 285 284 283 282 281 281 280 279 279 278 278 278 277 277 277 277 277 277 276 276 276 276 277 277 277 277 277 277 277 277 277 277 277 278 279 279 279 278 278 279 280 281 281 282 283 282
287 287 286 286 285 284 284 283 282 282 281 280 280 279 279 278 278 278 277 277 277 277 277 276 276 276 276 276 276 277 277 277 277 277 276 276 277 277 277 278 278 279 279 278 278 278 279 280 281 282 281 280
287 286 286 285 285 284 284 283 283 282 281 281 280 279 279 278 278 277 277 277 277 277 277 276 276 276 276 276 276 276 276 276 276 276 276 276 276 276 277 277 278 278 278 278 278 278 278 279 279 280 279 279
287 286 285 285 285 285 284 284 284 283 282 282 281 280 279 279 278 277 277 277 277 277 276 276 276 276 276 276 276 276 276 276 276 276 276 276 276 276 277 277 277 277 278 278 278 278 278 278 278 279 278 278
Wind_Speed
17 20 21 20 18 17 15 13 12 12 12 13 14 15 17 17 19 20 20 16 15 16 15 15 16 16 17 17 17 16 16 15 16 17 17 17 17 17 16 16 16 17 20 21 21 20 21 21 20 21 24 24
13 18 20 20 19 18 17 15 12 12 12 13 15 16 17 19 21 21 17 15 15 15 14 15 15 15 16 16 16 15 15 14 15 16 16 16 16 16 15 16 17 19 21 22 21 20 20 20 21 23 25 24
7 14 19 19 19 20 18 17 14 14 14 13 15 16 17 20 22 19 15 14 15 14 14 15 15 16 16 16 15 14 14 14 14 15 14 15 15 15 16 18 20 22 22 22 22 20 19 20 22 24 25 24
7 13 18 16 16 19 19 18 17 16 14 12 14 13 15 19 19 16 13 14 15 14 14 15 16 17 16 16 15 14 14 14 14 14 13 14 14 14 17 20 22 23 22 22 22 21 21 22 24 24 24 24
9 14 15 10 10 14 15 15 16 15 11 11 12 12 14 17 16 13 13 14 15 14 14 17 17 16 16 16 16 14 13 14 14 13 14 14 14 15 18 21 22 22 22 21 21 22 22 23 24 23 23 24
9 10 8 7 8 9 11 11 12 12 9 11 12 11 14 15 13 13 14 14 14 14 16 18 16 15 16 16 15 13 12 15 13 12 14 13 14 16 17 18 18 19 23 23 22 22 22 22 23 23 23 23
7 6 6 7 7 7 8 8 9 10 10 11 11 12 13 13 13 14 14 13 14 15 16 16 15 15 16 16 13 11 13 14 11 11 13 13 14 14 13 13 13 15 20 22 23 23 23 23 22 23 24 23
7 6 7 7 7 7 7 7 8 9 10 10 11 11 12 13 14 14 13 13 13 14 13 13 14 14 14 13 11 11 13 12 10 11 12 12 12 12 11 11 11 13 14 17 21 23 23 24 23 23 24 24
7 9 9 8 7 7 7 8 8 9 10 10 10 11 13 14 13 13 13 13 13 12 12 13 13 12 11 10 11 12 12 10 10 11 12 11 11 11 11 12 12 12 13 13 18 22 22 23 24 24 24 25
9 11 10 7 7 8 9 8 8 9 9 9 10 13 13 12 12 13 13 12 12 12 12 12 12 11 10 10 11 11 10 10 11 11 11 11 11 11 11 12 12 12 13 13 16 21 22 23 23 25 25 25
11 10 9 8 10 11 10 8 9 9 8 9 12 12 11 11 12 12 13 13 12 12 11 11 11 11 10 10 11 10 10 11 11 11 11 11 11 12 11 12 13 13 13 13 14 17 20 23 24 25 26 26
13 11 10 10 11 11 9 9 9 8 8 11 12 10 10 11 11 12 13 13 12 11 11 11 11 10 10 10 10 9 10 11 11 11 11 11 12 12 12 12 13 13 13 14 14 14 16 21 25 26 26 27
13 11 11 11 11 10 10 10 9 9 10 11 9 9 10 10 10 12 13 13 12 11 11 11 11 11 10 10 9 9 10 10 11 11 11 12 12 12 13 13 14 14 15 15 15 14 14 17 22 25 27 29
14 12 12 12 12 11 11 10 9 10 11 10 9 9 9 10 12 13 12 12 12 11 12 11 11 11 10 9 9 9 10 10 10 11 11 12 13 13 14 14 15 15 15 15 15 15 15 15 18 20 26 31
15 14 13 13 12 12 12 11 11 11 10 10 10 10 10 12 12 12 12 12 12 12 12 11 11 11 10 10 9 9 10 10 10 11 13 14 14 14 14 15 15 15 15 16 16 16 16 16 16 17 24 30
17 16 15 15 14 13 13 13 12 11 11 11 10 10 11 12 11 12 12 12 12 12 12 12 12 11 11 11 10 10 10 10 11 13 15 15 14 14 14 15 15 15 15 16 16 16 17 17 17 18 21 26
18 17 16 16 16 15 14 14 14 13 12 12 11 11 12 12 12 13 12 12 12 12 13 12 12 12 12 11 10 10 11 11 12 13 13 13 13 14 15 15 15 15 16 16 16 17 18 18 18 18 19 21
18 18 17 18 17 15 15 15 14 13 13 12 12 11 12 12 13 12 12 12 12 12 13 12 12 12 12 11 11 11 11 11 12 12 13 13 14 14 14 15 16 16 16 17 17 17 18 18 18 19 19 20
21 19 18 19 19 17 17 17 15 14 14 13 12 12 12 12 12 12 12 12 12 12 12 12 12 12 12 11 11 11 11 12 12 13 13 14 14 14 14 16 16 16 17 17 18 18 18 17 19 20 21 20
24 21 19 19 20 19 19 19 17 16 15 14 13 13 12 12 12 13 13 13 12 12 12 12 12 11 11 11 11 11 11 12 13 13 13 13 13 14 15 16 17 16 17 18 18 18 17 18 21 22 21 20
25 23 21 19 19 20 20 21 20 17 16 15 15 14 13 12 12 13 13 13 12 12 12 12 12 11 11 11 11 11 12 13 13 13 13 13 13 14 15 16 17 17 17 17 17 17 18 19 21 21 20 19
23 22 22 20 19 21 21 21 20 18 16 16 16 15 14 13 13 13 13 13 12 12 12 12 12 12 11 11 11 12 12 13 13 13 13 14 14 13 14 15 16 17 17 17 17 17 18 19 21 21 19 18
20 20 20 20 19 20 20 20 20 19 18 17 16 16 15 14 14 14 13 13 13 13 12 12 12 12 11 11 11 12 12 13 13 13 13 14 14 13 14 15 16 16 17 16 16 17 18 19 21 21 19 17
18 18 18 18 19 19 20 19 19 20 20 19 17 16 16 16 15 14 13 13 13 13 13 12 12 12 12 11 12 12 13 13 13 13 13 13 13 13 14 14 14 15 14 15 16 17 18 17 19 20 18 16
18 19 19 18 19 20 19 18 18 19 20 19 18 17 17 16 16 15 14 14 14 14 14 13 13 13 13 12 12 13 14 14 13 13 12 12 12 13 13 13 12 11 11 12 13 13 13 16 18 16 13 12
19 20 20 19 19 19 18 18 18 18 18 18 18 18 18 17 16 16 16 15 15 15 15 14 14 13 13 13 13 14 14 14 14 13 13 12 11 11 12 12 11 9 9 9 10 10 10 12 12 9 7 7
21 21 20 20 20 18 17 17 17 17 16 16 17 17 18 19 18 17 17 16 16 16 16 16 15 14 14 14 14 14 14 14 14 14 13 12 11 10 10 11 10 9 8 8 10 10 8 6 7 5 4 3
22 21 20 20 20 19 18 16 15 15 15 16 16 16 17 19 20 19 18 17 18 17 17 17 16 15 14 14 15 15 15 14 14 13 13 12 11 10 10 10 9 8 7 7 7 6 5 5 5 4 1 7
19 19 19 18 17 17 18 18 16 16 17 17 18 19 19 19 20 20 19 18 19 19 18 18 17 16 15 15 15 16 16 15 14 13 13 12 12 11 10 10 9 8 8 8 8 6 5 5 4 3 6 10
17 17 18 17 17 16 17 18 19 20 20 19 19 21 21 20 20 20 20 19 20 20 19 18 18 17 17 16 16 16 16 15 15 14 14 13 12 12 11 10 10 10 9 9 9 10 9 7 7 6 7 6
15 17 18 19 20 20 19 20 21 21 21 20 20 20 20 19 20 21 21 20 20 21 20 19 18 18 18 18 17 17 17 16 15 14 14 14 13 12 11 11 11 11 9 9 9 10 11 11 11 9 7 5
Wind_Direction
350 356 1 357 353 347 344 342 338 336 333 332 329 327 327 326 325 324 323 321 326 333 334 331 332 335 337 337 337 340 343 344 346 348 348 347 347 347 347 344 340 334 331 333 335 333 333 334 332 327 322 319
335 342 351 354 354 351 345 340 335 329 326 324 322 321 321 322 325 324 320 317 321 324 326 326 325 328 330 331 333 337 342 343 345 347 347 347 348 348 346 339 334 329 326 327 330 332 332 331 327 321 319 318
323 326 340 351 352 351 349 343 337 330 326 321 321 321 319 324 328 324 315 315 317 315 319 321 318 319 321 324 327 332 338 341 343 345 344 346 345 344 338 328 326 325 326 326 324 327 330 326 320 318 316 316
316 318 337 351 346 346 349 343 337 337 332 322 323 320 318 324 325 320 312 314 315 311 314 316 313 310 312 318 321 324 332 335 338 340 340 342 341 338 331 324 324 325 326 327 323 320 320 318 315 316 316 315
313 322 338 345 331 336 342 337 332 337 330 317 321 316 318 322 320 316 312 313 312 310 311 313 309 302 306 315 317 316 324 329 330 334 336 335 335 333 327 324 325 326 325 326 326 321 316 315 315 316 316 315
307 320 328 321 314 323 330 329 324 329 321 315 320 314 319 322 317 314 311 310 308 309 310 311 306 299 303 312 316 312 320 328 322 326 334 332 332 332 331 331 333 330 327 327 327 323 319 316 316 316 315 315
293 300 302 310 311 311 319 319 313 318 316 315 317 314 319 320 314 313 311 307 306 309 311 310 303 299 302 308 313 312 319 327 319 322 330 329 332 334 334 337 337 335 332 330 329 327 323 321 318 315 314 314
279 277 291 304 300 303 310 311 310 313 314 312 313 313 318 317 312 313 311 308 308 310 311 310 305 301 302 306 310 312 317 322 318 323 325 324 330 332 330 330 330 332 333 330 330 331 327 324 321 316 313 312
265 270 288 294 289 297 301 306 308 307 311 310 310 312 314 313 313 313 311 309 308 308 309 309 307 303 303 305 307 310 313 315 316 320 322 320 325 327 324 323 323 323 326 324 326 330 329 326 323 319 315 310
259 272 284 277 272 289 295 300 301 301 306 305 307 310 311 312 312 312 309 308 305 305 308 308 307 304 300 302 304 307 308 309 312 314 317 318 317 320 319 317 317 316 317 316 320 325 326 326 324 321 318 312
262 264 268 261 271 289 292 288 295 297 294 299 307 308 308 309 308 309 307 305 302 303 306 305 304 301 297 298 299 301 303 305 309 308 310 312 312 314 313 313 314 312 311 310 313 317 321 324 324 322 319 316
263 257 256 258 270 283 278 277 290 288 284 298 304 300 301 302 301 304 304 302 299 300 301 301 300 297 294 292 293 296 299 300 302 304 305 307 308 309 310 310 310 309 308 308 308 306 310 317 321 322 319 317
255 252 250 251 259 263 261 273 280 274 284 293 292 291 294 293 294 299 299 297 295 296 295 297 295 293 290 286 288 291 292 295 298 300 301 303 303 304 306 306 307 306 304 304 304 302 300 308 316 318 317 317
248 246 246 246 251 253 258 267 265 272 284 281 280 287 287 286 291 294 293 292 292 291 289 292 292 288 288 283 285 288 286 290 293 295 298 300 300 299 301 302 303 302 301 301 300 301 298 299 306 309 313 315
246 244 243 243 246 250 255 259 260 270 274 268 274 279 280 286 289 287 286 286 287 285 284 286 288 285 284 283 283 284 283 286 288 291 295 294 294 294 295 298 299 298 298 298 297 298 297 297 297 298 306 311
245 243 240 242 244 249 252 253 257 264 262 262 269 270 277 282 281 281 280 282 282 279 279 281 283 282 280 281 281 280 280 283 285 288 289 288 288 289 291 293 294 295 295 294 295 295 297 297 294 294 298 303
242 241 238 241 243 245 246 247 253 258 255 258 264 267 273 275 276 278 276 277 277 276 277 277 279 278 277 277 277 277 277 278 282 284 284 285 287 287 289 291 292 293 292 292 293 294 296 296 294 293 293 294
237 238 235 239 242 240 241 243 247 251 252 256 260 262 265 268 271 271 268 270 273 273 272 272 274 273 273 274 273 274 273 276 279 279 281 284 287 287 287 289 291 292 291 291 292 293 294 294 295 293 290 288
238 236 234 240 243 239 240 243 242 244 249 251 251 254 257 258 261 262 261 263 267 267 265 266 268 267 268 270 271 272 271 275 278 277 279 282 285 285 286 288 289 289 289 291 291 292 292 292 295 292 287 285
243 237 234 238 243 241 241 245 244 242 244 246 245 247 251 252 253 254 257 260 260 258 257 260 262 262 264 267 268 270 271 274 276 276 277 279 281 283 285 287 288 288 288 289 290 291 291 290 293 289 284 283
244 240 236 234 238 242 241 242 244 241 240 242 241 243 248 248 246 248 256 259 251 249 253 254 257 259 260 263 264 267 271 272 272 273 275 277 278 280 284 286 287 288 288 289 290 291 290 289 288 285 282 283
241 240 238 234 235 239 239 240 242 239 235 237 237 241 244 242 244 247 254 255 245 244 250 251 254 256 258 259 261 264 268 270 269 269 271 274 276 278 282 285 286 288 289 289 289 289 287 286 284 282 282 282
243 240 238 236 234 236 236 236 237 235 234 234 233 237 238 238 244 247 251 250 240 242 247 249 252 254 255 255 257 261 264 266 266 266 267 270 273 277 279 281 283 285 287 288 288 288 286 283 281 281 281 280
242 239 238 236 235 235 233 232 233 234 237 235 231 232 233 236 242 245 246 242 235 239 244 246 248 250 252 251 252 255 258 261 262 264 267 269 273 278 279 279 278 281 286 289 289 287 284 283 281 279 278 276
238 236 237 236 235 237 236 233 231 232 233 231 227 229 229 229 238 243 241 236 233 236 239 242 245 247 248 248 247 250 253 256 258 261 264 268 273 275 276 279 276 280 289 291 292 292 293 291 284 276 270 270
243 240 240 241 241 242 242 238 233 230 229 226 224 228 228 227 234 239 236 233 231 231 234 236 239 241 243 243 244 247 249 252 254 255 256 260 266 268 270 274 274 278 284 287 297 304 301 296 293 281 254 251
250 250 247 247 247 248 247 244 239 235 232 228 223 223 226 231 237 237 232 230 228 227 229 230 233 236 239 239 240 242 246 247 247 247 248 249 254 263 270 272 272 267 261 276 298 300 291 299 316 300 224 233
255 258 256 253 252 251 252 253 248 242 236 230 227 224 224 230 238 238 231 227 224 223 225 226 227 231 234 236 235 236 241 242 240 239 240 241 244 252 263 270 271 261 247 261 285 296 295 301 299 284 323 345
262 260 258 255 252 249 250 252 248 243 239 232 228 229 229 230 233 233 228 223 221 221 223 223 224 227 230 232 232 232 235 238 237 236 236 237 238 241 249 262 272 269 258 252 250 261 287 297 281 289 346 339
266 259 258 254 250 247 247 248 244 240 239 234 229 231 232 230 226 224 222 221 220 219 219 221 222 224 227 229 230 231 232 234 235 233 233 232 234 236 241 250 263 268 264 256 245 242 251 266 277 295 323 325
268 259 260 257 253 253 253 254 253 249 245 239 233 231 227 222 219 217 218 219 219 219 217 218 220 222 224 227 229 228 230 231 231 231 231 229 229 232 234 236 246 258 263 263 253 240 239 251 261 269 281 287